DW4536 Weather Reports


time (UTC)temp
F
wind
direction
speed
knots
gust
knots
rain 1hr
in
rain 24hr
in
rain mn
in
humidity
%
barometer
mb
20260505224016 74 257 5.2 13.0 0.00 0.56 0.23 33 1010.9
20260505223516 74 241 5.2 13.0 0.00 0.56 0.23 34 1010.9
20260505223013 74 220 5.2 13.0 0.00 0.56 0.23 33 1011.0
20260505222514 74 218 6.1 12.2 0.00 0.56 0.23 36 1010.9
20260505222015 74 223 6.1 13.0 0.00 0.56 0.23 35 1011.0
20260505221514 75 234 6.1 14.8 0.00 0.56 0.23 35 1011.3
20260505221243 75 269 6.1 14.8 0.00 0.56 0.23 34 1011.3
20260505220512 75 223 6.1 12.2 0.00 0.56 0.23 34 1011.2
20260505220009 75 254 5.2 12.2 0.00 0.56 0.23 33 1011.3
20260505215511 75 207 6.1 12.2 0.00 0.56 0.23 35 1011.3
20260505215241 74 280 7.0 12.2 0.00 0.56 0.23 34 1011.3
20260505214509 74 273 7.0 14.8 0.00 0.56 0.23 35 1011.4
20260505214008 74 237 6.1 14.8 0.00 0.56 0.23 36 1011.5
20260505213511 74 247 6.1 13.9 0.00 0.56 0.23 39 1011.5
20260505213009 73 242 6.1 13.9 0.00 0.56 0.23 38 1011.5
20260505212509 72 240 6.1 12.2 0.00 0.56 0.23 39 1011.6
20260505212010 72 243 6.1 12.2 0.00 0.56 0.23 40 1011.6
20260505211508 73 218 6.1 14.8 0.00 0.56 0.23 40 1011.5
20260505211007 74 281 7.0 15.6 0.00 0.56 0.23 41 1011.5
20260505210509 74 246 6.1 15.6 0.00 0.56 0.23 41 1011.6
20260505210007 74 219 5.2 14.8 0.00 0.56 0.23 41 1011.6
20260505205739 72 190 5.2 14.8 0.00 0.56 0.23 44 1011.7
20260505205008 71 259 4.3 12.2 0.00 0.56 0.23 42 1011.7
20260505204509 71 234 4.3 11.3 0.00 0.56 0.23 45 1011.7
20260505204006 70 250 4.3 11.3 0.00 0.56 0.23 44 1011.8
20260505203740 69 270 1.7 7.8 0.00 0.56 0.23 49 1011.8
20260505203238 69 189 0.9 4.3 0.00 0.56 0.23 54 1011.9
20260505202512 69 221 2.6 5.2 0.00 0.56 0.23 55 1012.0
20260505202508 69 183 1.7 5.2 0.00 0.56 0.23 53 1012.0
20260505201739 69 232 2.6 5.2 0.00 0.56 0.23 54 1012.2
20260505201006 69 191 2.6 6.1 0.00 0.56 0.23 54 1012.2
20260505200507 69 229 2.6 7.0 0.00 0.56 0.23 55 1012.2
20260505200005 69 227 3.5 7.0 0.00 0.56 0.23 57 1012.2
20260505195505 69 214 2.6 6.1 0.00 0.56 0.23 55 1012.3
20260505195008 69 284 2.6 7.0 0.00 0.56 0.23 54 1012.2
20260505194505 70 243 3.5 7.8 0.00 0.56 0.23 56 1012.2
20260505194005 71 244 3.5 7.8 0.00 0.56 0.23 55 1012.1
20260505193738 71 232 3.5 7.8 0.00 0.56 0.23 56 1012.3
20260505193003 71 331 1.7 5.2 0.00 0.56 0.23 55 1012.3
20260505192504 70 266 2.6 7.0 0.00 0.56 0.23 56 1012.5
20260505192005 70 324 3.5 7.8 0.00 0.56 0.23 57 1012.5
20260505191503 70 320 3.5 7.8 0.00 0.56 0.23 58 1012.6
20260505191003 69 307 2.6 7.8 0.00 0.56 0.23 60 1012.7
20260505190506 69 246 3.5 7.8 0.00 0.56 0.23 60 1012.8
20260505190004 69 302 2.6 6.1 0.00 0.56 0.23 58 1012.9
20260505185505 70 277 2.6 7.8 0.00 0.56 0.23 59 1013.0
20260505185004 70 296 2.6 7.8 0.00 0.56 0.23 58 1013.1
20260505184504 70 182 2.6 7.0 0.00 0.56 0.23 57 1013.2
20260505184001 70 245 1.7 5.2 0.00 0.56 0.23 60 1013.2
20260505183502 69 251 1.7 5.2 0.00 0.56 0.23 58 1013.2
20260505183001 69 177 1.7 3.5 0.00 0.56 0.23 61 1013.3
20260505182501 69 292 0.9 4.3 0.00 0.56 0.23 59 1013.3
20260505182002 68 288 0.9 4.3 0.00 0.56 0.23 59 1013.3
20260505181501 68 259 0.9 4.3 0.00 0.56 0.23 64 1013.3
20260505181003 67 174 0.9 4.3 0.00 0.56 0.23 62 1013.5
20260505180502 67 317 0.0 1.7 0.00 0.56 0.23 62 1013.5
20260505180001 66 211 0.9 3.5 0.00 0.56 0.23 63 1013.6
20260505175502 66 195 0.9 3.5 0.00 0.56 0.23 63 1013.8
20260505175000 66 275 0.9 3.5 0.00 0.56 0.23 62 1013.8
20260505174500 66 254 0.9 3.5 0.00 0.56 0.23 63 1013.8
20260505173958 66 200 0.9 2.6 0.00 0.56 0.23 64 1013.6
20260505173459 66 241 0.9 3.5 0.00 0.56 0.23 66 1013.6
20260505172957 66 319 0.9 3.5 0.00 0.56 0.23 67 1013.8
20260505172459 65 233 0.9 2.6 0.00 0.56 0.23 69 1013.9
20260505171957 65 186 0.9 2.6 0.00 0.56 0.23 69 1013.9
20260505171458 65 205 0.9 2.6 0.00 0.56 0.23 69 1013.8
20260505171227 64 261 0.9 2.6 0.00 0.56 0.23 70 1013.6
20260505170455 64 292 0.9 1.7 0.00 0.56 0.23 69 1013.8
20260505170227 64 324 0.9 2.6 0.00 0.56 0.23 71 1013.6
20260505165455 64 261 0.9 2.6 0.00 0.56 0.23 74 1013.6
20260505164957 63 248 0.9 2.6 0.00 0.56 0.23 76 1013.6
20260505164457 63 229 0.9 2.6 0.00 0.56 0.23 78 1013.6
20260505163956 63 217 0.9 2.6 0.00 0.56 0.23 78 1013.6
20260505163455 63 296 0.9 2.6 0.00 0.56 0.23 79 1013.8
20260505162954 62 215 0.9 2.6 0.00 0.56 0.23 80 1013.8
20260505162455 62 257 0.9 2.6 0.00 0.56 0.23 83 1013.8
20260505161951 62 215 0.9 2.6 0.00 0.56 0.23 81 1013.8
20260505161449 62 244 0.0 1.7 0.00 0.56 0.23 81 1013.8
20260505160950 62 253 0.0 1.7 0.00 0.56 0.23 85 1013.8
20260505160448 62 183 0.0 1.7 0.00 0.56 0.23 86 1013.6
20260505152949 61 257 0.0 1.7 0.00 0.56 0.23 90 1013.5
20260505152446 61 241 0.0 1.7 0.00 0.56 0.23 91 1013.4
20260505151948 60 279 0.9 1.7 0.00 0.56 0.23 92 1013.4
20260505151445 60 301 0.0 1.7 0.00 0.56 0.23 92 1013.4
20260505151214 60 301 0.0 1.7 0.00 0.56 0.23 92 1013.4
20260505150442 60 301 0.0 1.7 0.00 0.56 0.23 93 1013.5
20260505140431 59 280 0.0 1.7 0.01 0.56 0.23 94 1013.0
20260505124932 58 280 0.0 1.7 0.01 0.55 0.22 93 1012.6
20260505124431 58 280 0.0 1.7 0.01 0.55 0.22 93 1012.7
20260505123931 58 280 0.0 1.7 0.01 0.55 0.22 94 1012.7
20260505123431 58 280 0.0 0.9 0.01 0.55 0.22 93 1012.5
20260505122931 58 95 0.0 1.7 0.01 0.55 0.22 93 1012.1
20260505122430 58 95 0.0 1.7 0.01 0.55 0.22 93 1012.3
20260505121931 58 92 0.0 0.0 0.01 0.55 0.22 93 1012.2
20260505121700 58 92 0.0 0.0 0.00 0.54 0.21 93 1012.1
20260505120931 58 92 0.0 0.0 0.00 0.54 0.21 93 1012.1
20260505120430 58 92 0.0 0.9 0.01 0.54 0.21 92 1012.0
20260505115931 58 92 0.0 1.7 0.01 0.54 0.21 92 1011.8
20260505115436 58 92 0.0 0.0 0.02 0.54 0.21 91 1012.1
20260505115430 58 92 0.0 1.7 0.02 0.54 0.21 92 1012.0
20260505114429 58 92 0.0 1.7 0.02 0.54 0.21 91 1012.0
20260505113925 58 92 0.0 1.7 0.02 0.54 0.21 90 1011.9
20260505113426 58 120 0.0 2.6 0.02 0.54 0.21 90 1012.3
20260505112927 58 120 0.0 2.6 0.02 0.54 0.21 86 1012.5
20260505112426 58 119 0.0 1.7 0.02 0.54 0.21 86 1012.3
20260505111925 58 9 0.9 1.7 0.03 0.54 0.21 86 1012.0
20260505111424 58 339 0.9 1.7 0.03 0.54 0.21 86 1012.1
20260505110924 58 345 0.9 1.7 0.03 0.54 0.21 86 1012.3
20260505110423 58 319 0.0 1.7 0.02 0.53 0.20 88 1012.3
20260505101917 58 355 1.7 3.5 0.04 0.51 0.18 90 1013.1
20260505101416 58 296 0.9 2.6 0.04 0.51 0.18 91 1013.3
20260505101148 58 323 0.9 2.6 0.06 0.51 0.18 91 1013.4
20260505100418 58 323 0.0 1.7 0.06 0.51 0.18 91 1013.8
20260505095916 57 344 0.0 1.7 0.06 0.51 0.18 90 1013.8
20260505095421 57 44 0.9 2.6 0.06 0.50 0.17 90 1013.5
20260505095416 57 44 0.0 1.7 0.07 0.51 0.18 90 1013.6
20260505094415 58 12 0.9 2.6 0.07 0.50 0.17 92 1013.5
20260505094146 58 0 0.9 2.6 0.07 0.50 0.17 93 1013.6
20260505094032 58 30 0.9 1.7 0.07 0.49 0.16 93 1014.2
20260505092913 58 34 0.9 1.7 0.06 0.48 0.15 93 1014.3
20260505092645 58 30 0.9 1.7 0.07 0.48 0.15 93 1014.5
20260505091915 58 20 0.9 1.7 0.06 0.47 0.14 94 1014.3
20260505091414 58 61 0.9 1.7 0.06 0.47 0.14 94 1014.4
20260505090914 58 45 0.9 1.7 0.05 0.45 0.14 93 1014.4
20260505090647 58 71 0.0 1.7 0.05 0.45 0.12 93 1014.7
20260505085913 58 103 0.9 1.7 0.06 0.45 0.12 93 1014.7
20260505085411 58 92 0.9 2.6 0.05 0.44 0.11 93 1014.8
20260505084910 58 113 0.9 2.6 0.06 0.44 0.11 93 1015.0
20260505084411 58 75 0.0 1.7 0.06 0.43 0.10 93 1015.3
20260505083909 58 75 0.0 0.0 0.06 0.43 0.10 93 1015.4
20260505083407 58 51 0.0 0.0 0.06 0.42 0.09 93 1015.5
20260505082909 58 51 0.0 0.0 0.06 0.42 0.09 93 1015.7
20260505082640 58 51 0.0 0.0 0.06 0.41 0.09 93 1015.6
20260505082137 58 51 0.0 0.0 0.07 0.41 0.08 93 1015.6
20260505081637 58 51 0.0 0.0 0.07 0.41 0.08 93 1015.7
20260505080910 59 51 0.0 0.0 0.07 0.40 0.07 92 1015.9
20260505080904 58 51 0.0 0.0 0.06 0.40 0.07 92 1015.8
20260505075904 59 51 0.0 0.0 0.06 0.39 0.06 93 1016.0
20260505075405 59 51 0.0 0.0 0.06 0.39 0.06 93 1016.3
20260505074905 59 51 0.0 0.0 0.05 0.38 0.05 93 1016.3
20260505074404 59 51 0.0 0.0 0.04 0.37 0.04 93 1016.4
20260505073905 59 51 0.0 0.0 0.05 0.37 0.04 93 1016.4
20260505073405 59 51 0.0 0.0 0.05 0.36 0.03 93 1016.3
20260505072905 59 51 0.0 0.0 0.05 0.36 0.03 93 1016.3
20260505072409 59 51 0.0 0.0 0.04 0.34 0.01 92 1016.1
20260505072404 59 51 0.0 0.0 0.04 0.35 0.02 92 1016.1
20260505071401 59 51 0.0 0.0 0.05 0.34 0.01 92 1016.1
20260505070904 59 51 0.0 1.7 0.05 0.34 0.01 93 1016.1
20260505070634 59 51 0.0 1.7 0.05 0.33 0.00 93 1016.0
20260505065903 59 51 0.0 1.7 0.05 0.33 0.33 92 1015.9
20260505065408 59 51 0.0 0.0 0.06 0.33 0.33 92 1015.9
20260505065402 59 51 0.0 1.7 0.05 0.33 0.33 92 1015.9
20260505065019 59 51 0.0 0.0 0.06 0.33 0.33 92 1015.8
20260505063901 59 51 0.0 0.0 0.05 0.32 0.32 93 1015.7
20260505063632 59 51 0.0 0.0 0.05 0.31 0.31 93 1015.7
20260505062902 58 51 0.0 0.0 0.05 0.31 0.31 92 1015.7
20260505062359 58 51 0.0 0.0 0.05 0.31 0.31 91 1015.9
20260505061900 58 51 0.0 0.0 0.04 0.30 0.30 91 1015.9
20260505061401 58 51 0.0 0.0 0.04 0.29 0.30 91 1016.0
20260505061131 58 51 0.0 0.0 0.04 0.29 0.29 91 1016.0
20260505060400 58 51 0.0 0.0 0.03 0.28 0.28 91 1015.9
20260505055900 58 51 0.0 1.7 0.03 0.28 0.28 90 1015.8
20260505055359 58 51 0.0 1.7 0.04 0.28 0.28 90 1015.8
20260505055131 58 51 0.9 1.7 0.03 0.27 0.27 91 1015.6
20260505054359 59 17 0.9 1.7 0.03 0.27 0.27 91 1015.6
20260505054130 59 35 0.0 1.7 0.03 0.27 0.27 90 1015.8
20260505053359 59 101 0.0 1.7 0.02 0.26 0.26 90 1016.0
20260505052858 59 124 0.9 2.6 0.02 0.26 0.26 90 1016.0
20260505052403 59 113 0.9 2.6 0.03 0.26 0.26 89 1015.8
20260505052359 59 124 0.9 2.6 0.03 0.26 0.26 89 1016.0
20260505051356 60 110 0.0 1.7 0.02 0.25 0.25 90 1015.8
20260505050856 59 269 0.0 0.0 0.02 0.25 0.25 89 1015.9
20260505050627 59 269 0.0 1.7 0.02 0.25 0.25 90 1015.8
20260505041354 59 245 0.0 3.5 0.00 0.23 0.23 88 1015.8
20260505040852 59 175 0.0 3.5 0.01 0.23 0.23 87 1015.8
20260505040351 59 161 0.0 1.7 0.02 0.23 0.23 88 1015.7
20260505035858 59 110 0.0 1.7 0.03 0.23 0.23 87 1015.5
20260505035851 59 161 0.0 1.7 0.03 0.23 0.23 88 1015.6
20260505034851 59 147 0.0 0.9 0.04 0.23 0.23 86 1015.4
20260505034353 59 147 0.9 1.7 0.04 0.23 0.23 84 1015.2
20260505033851 59 147 0.9 3.5 0.04 0.23 0.23 84 1015.1
20260505033351 58 292 0.9 3.5 0.05 0.23 0.23 78 1014.8
20260505032851 58 20 0.9 4.3 0.06 0.23 0.23 84 1014.8
20260505032351 57 28 1.7 4.3 0.06 0.23 0.23 84 1014.8
20260505031849 57 38 0.9 2.6 0.06 0.23 0.23 84 1015.1
20260505031355 58 345 0.9 1.7 0.07 0.22 0.22 79 1015.9
20260505031349 58 42 0.0 1.7 0.07 0.23 0.23 84 1015.6
20260505030349 58 310 0.9 2.6 0.07 0.21 0.21 76 1016.1
20260505025849 58 242 0.0 2.6 0.08 0.20 0.20 79 1016.1
20260505025347 58 308 0.0 2.6 0.08 0.20 0.20 78 1016.3
20260505024848 58 308 0.9 2.6 0.07 0.19 0.19 76 1016.3
20260505024348 58 334 0.9 3.5 0.08 0.19 0.19 74 1016.0
20260505023847 59 301 0.9 3.5 0.09 0.19 0.19 75 1016.0
20260505023346 59 323 0.9 2.6 0.08 0.18 0.18 75 1016.1
20260505022845 59 315 0.0 1.7 0.07 0.17 0.18 79 1016.1
20260505022344 59 267 0.9 6.1 0.08 0.17 0.17 77 1016.3
20260505021844 60 257 0.9 6.1 0.08 0.17 0.17 77 1016.3
20260505021344 60 345 0.9 3.5 0.07 0.16 0.16 73 1016.0
20260505020845 60 283 0.9 5.2 0.07 0.15 0.15 71 1016.0
20260505020345 60 306 1.7 5.2 0.06 0.14 0.14 68 1015.8
20260505015845 61 293 1.7 5.2 0.04 0.12 0.12 69 1015.8
20260505015344 61 254 1.7 5.2 0.05 0.12 0.12 68 1015.8
20260505015115 61 286 2.6 5.2 0.05 0.12 0.12 70 1015.7
20260505014344 62 250 1.7 5.2 0.04 0.11 0.11 67 1015.8
20260505013845 62 228 1.7 5.2 0.04 0.10 0.10 68 1015.6
20260505013345 62 284 0.9 3.5 0.04 0.10 0.10 67 1015.3
20260505012844 62 280 0.9 4.3 0.05 0.10 0.10 70 1015.1
20260505012349 62 282 0.9 4.3 0.05 0.09 0.09 65 1014.7
20260505012344 62 300 0.9 4.3 0.04 0.09 0.09 66 1015.0
20260505011615 62 321 0.9 4.3 0.06 0.09 0.09 63 1014.6
20260505010845 62 348 0.0 2.6 0.05 0.08 0.08 70 1014.6
20260505010345 62 34 0.0 2.6 0.05 0.08 0.08 77 1014.7
20260505005844 63 66 0.0 2.6 0.05 0.08 0.08 75 1014.7
20260505005343 63 300 0.0 3.5 0.04 0.07 0.07 70 1014.8
20260505004844 63 300 0.0 3.5 0.04 0.07 0.07 67 1014.8
20260505004618 64 264 0.9 3.5 0.05 0.07 0.07 67 1015.0
20260505003844 64 274 1.7 6.1 0.04 0.06 0.06 63 1015.0
20260505003346 65 289 1.7 6.1 0.05 0.06 0.06 60 1014.7
20260505002845 65 307 2.6 7.0 0.05 0.05 0.05 63 1014.7
20260505002343 66 296 3.5 7.0 0.05 0.05 0.05 56 1014.6
20260505001845 66 332 2.6 7.0 0.04 0.04 0.04 55 1014.5
20260505001618 65 277 2.6 7.0 0.03 0.03 0.03 54 1014.2
20260505000844 65 297 3.5 7.8 0.03 0.03 0.03 57 1014.1
20260505000345 65 9 3.5 7.8 0.03 0.03 0.03 59 1014.0
20260504235844 65 340 3.5 7.8 0.03 0.03 0.03 59 1013.8
20260504235617 64 15 3.5 7.8 0.03 0.03 0.03 60 1013.9
20260504235114 64 323 3.5 9.6 0.03 0.03 0.03 62 1014.0
20260504234344 65 340 3.5 9.6 0.02 0.02 0.02 57 1014.2
20260504233844 66 208 4.3 14.8 0.02 0.02 0.02 56 1014.5
20260504233345 68 293 4.3 14.8 0.01 0.01 0.01 50 1014.7
20260504232845 70 289 5.2 14.8 0.00 0.00 0.00 49 1014.5
20260504232343 73 252 6.1 14.8 0.00 0.00 0.00 39 1014.3
20260504231844 75 268 6.1 11.3 0.00 0.00 0.00 30 1014.2
20260504231344 76 281 6.1 14.8 0.00 0.00 0.00 29 1014.0
20260504230844 76 275 6.1 14.8 0.00 0.00 0.00 25 1013.9
20260504230615 76 286 5.2 13.0 0.00 0.00 0.00 26 1013.6
20260504225849 76 238 5.2 16.5 0.00 0.00 0.00 25 1013.6
20260504225844 76 205 4.3 16.5 0.00 0.00 0.00 24 1013.8
20260504224845 78 246 6.1 11.3 0.00 0.00 0.00 23 1013.5